Time,TemperatureF,DewpointF,PressureIn,WindDirection,WindDirectionDegrees,WindSpeedMPH,WindSpeedGustMPH,Humidity,HourlyPrecipIn,Conditions,Clouds,dailyrainin,SolarRadiationWatts/m^2,SoftwareType,DateUTC
2013-05-06 00:02:00,31.0,30.0,-100.00,NW,322,0.0,2.0,96,0.00,,,0.28,0.000000,,2013-05-06 05:02:00,
2013-05-06 00:32:00,31.0,30.0,-100.00,NW,322,0.0,2.0,96,0.00,,,0.28,0.000000,,2013-05-06 05:32:00,
2013-05-06 00:42:00,31.0,30.0,-100.00,NW,322,0.0,2.0,96,0.00,,,0.28,0.000000,,2013-05-06 05:42:00,
2013-05-06 00:52:00,31.0,30.0,-100.00,NW,322,0.0,2.0,96,0.00,,,0.28,0.000000,,2013-05-06 05:52:00,
2013-05-06 01:22:00,30.0,29.0,-100.00,NNE,31,0.0,2.0,97,0.00,,,0.28,0.000000,,2013-05-06 06:22:00,
2013-05-06 01:32:00,30.0,29.0,-100.00,NNE,31,0.0,2.0,97,0.00,,,0.28,0.000000,,2013-05-06 06:32:00,
2013-05-06 01:42:00,30.0,29.0,-100.00,NNE,31,0.0,2.0,97,0.00,,,0.28,0.000000,,2013-05-06 06:42:00,
2013-05-06 01:52:00,30.0,29.0,-100.00,NNE,31,0.0,2.0,97,0.00,,,0.28,0.000000,,2013-05-06 06:52:00,
2013-05-06 02:01:00,30.0,29.0,-100.00,NNE,31,0.0,2.0,97,0.00,,,0.28,0.000000,,2013-05-06 07:01:00,
2013-05-06 02:02:00,29.0,28.0,-100.00,East,88,0.0,2.0,97,0.00,,,0.28,0.000000,,2013-05-06 07:02:00,
2013-05-06 02:32:00,29.0,28.0,-100.00,East,88,0.0,2.0,97,0.00,,,0.28,0.000000,,2013-05-06 07:32:00,
2013-05-06 02:42:00,29.0,28.0,-100.00,East,88,0.0,2.0,97,0.00,,,0.28,0.000000,,2013-05-06 07:42:00,
2013-05-06 02:52:00,29.0,28.0,-100.00,East,88,0.0,2.0,97,0.00,,,0.28,0.000000,,2013-05-06 07:52:00,
2013-05-06 03:32:00,29.0,28.0,-100.00,East,85,0.0,1.0,97,0.00,,,0.28,0.000000,,2013-05-06 08:32:00,
2013-05-06 03:42:00,29.0,28.0,-100.00,East,85,0.0,1.0,97,0.00,,,0.28,0.000000,,2013-05-06 08:42:00,
2013-05-06 03:52:00,29.0,28.0,-100.00,East,85,0.0,1.0,97,0.00,,,0.28,0.000000,,2013-05-06 08:52:00,
2013-05-06 04:01:00,29.0,28.0,-100.00,East,85,0.0,1.0,97,0.00,,,0.28,0.000000,,2013-05-06 09:01:00,
2013-05-06 04:02:00,28.0,27.0,-100.00,ENE,60,0.0,2.0,97,0.00,,,0.27,0.000000,,2013-05-06 09:02:00,
2013-05-06 04:33:00,28.0,27.0,-100.00,ENE,60,0.0,2.0,97,0.00,,,0.27,0.000000,,2013-05-06 09:33:00,
2013-05-06 04:43:00,28.0,27.0,-100.00,ENE,60,0.0,2.0,97,0.00,,,0.27,0.000000,,2013-05-06 09:43:00,
2013-05-06 04:53:00,28.0,27.0,-100.00,ENE,60,0.0,2.0,97,0.00,,,0.27,0.000000,,2013-05-06 09:53:00,
2013-05-06 05:02:00,27.0,26.0,-100.00,NNE,29,0.0,2.0,97,0.00,,,0.27,0.000000,,2013-05-06 10:02:00,
2013-05-06 05:22:00,27.0,26.0,-100.00,NNE,29,0.0,2.0,97,0.00,,,0.27,0.000000,,2013-05-06 10:22:00,
2013-05-06 05:33:00,27.0,26.0,-100.00,NNE,29,0.0,2.0,97,0.00,,,0.27,0.000000,,2013-05-06 10:33:00,
2013-05-06 05:42:00,27.0,26.0,-100.00,NNE,29,0.0,2.0,97,0.00,,,0.27,0.000000,,2013-05-06 10:42:00,
2013-05-06 05:52:00,27.0,26.0,-100.00,NNE,29,0.0,2.0,97,0.00,,,0.27,0.000000,,2013-05-06 10:52:00,
2013-05-06 06:22:00,27.0,26.0,-100.00,ENE,64,0.0,2.0,96,0.00,,,0.27,4.000000,,2013-05-06 11:22:00,
2013-05-06 06:32:00,27.0,26.0,-100.00,ENE,64,0.0,2.0,96,0.00,,,0.27,4.000000,,2013-05-06 11:32:00,
2013-05-06 06:42:00,27.0,26.0,-100.00,ENE,64,0.0,2.0,96,0.00,,,0.27,4.000000,,2013-05-06 11:42:00,
2013-05-06 06:52:00,27.0,26.0,-100.00,ENE,64,0.0,2.0,96,0.00,,,0.27,4.000000,,2013-05-06 11:52:00,
2013-05-06 07:01:00,27.0,26.0,-100.00,ENE,64,0.0,2.0,96,0.00,,,0.27,4.000000,,2013-05-06 12:01:00,
2013-05-06 07:32:00,32.0,31.0,-100.00,East,81,0.0,2.0,95,0.00,,,0.27,62.000000,,2013-05-06 12:32:00,
2013-05-06 07:42:00,32.0,31.0,-100.00,East,81,0.0,2.0,95,0.00,,,0.27,62.000000,,2013-05-06 12:42:00,
2013-05-06 07:52:00,32.0,31.0,-100.00,East,81,0.0,2.0,95,0.00,,,0.27,62.000000,,2013-05-06 12:52:00,
2013-05-06 08:01:00,32.0,31.0,-100.00,East,81,0.0,2.0,95,0.00,,,0.27,62.000000,,2013-05-06 13:01:00,
2013-05-06 09:32:00,59.0,41.0,-100.00,WNW,292,0.0,5.0,51,-99.99,,,0.22,466.000000,,2013-05-06 14:32:00,
2013-05-06 09:42:00,59.0,41.0,-100.00,WNW,292,0.0,5.0,51,-99.99,,,0.22,466.000000,,2013-05-06 14:42:00,
2013-05-06 09:52:00,59.0,41.0,-100.00,WNW,292,0.0,5.0,51,-99.99,,,0.22,466.000000,,2013-05-06 14:52:00,
2013-05-06 10:01:00,59.0,41.0,-100.00,WNW,292,0.0,5.0,51,-99.99,,,0.22,466.000000,,2013-05-06 15:01:00,
2013-05-06 10:02:00,67.0,41.0,-100.00,South,172,1.0,4.0,39,0.00,,,0.15,656.000000,,2013-05-06 15:02:00,
2013-05-06 10:33:00,67.0,41.0,-100.00,South,172,1.0,4.0,39,0.00,,,0.15,656.000000,,2013-05-06 15:33:00,
2013-05-06 10:43:00,67.0,41.0,-100.00,South,172,1.0,4.0,39,0.00,,,0.15,656.000000,,2013-05-06 15:43:00,
2013-05-06 10:53:00,67.0,41.0,-100.00,South,172,1.0,4.0,39,0.00,,,0.15,656.000000,,2013-05-06 15:53:00,
2013-05-06 11:02:00,68.0,39.0,-100.00,WNW,289,3.0,5.0,35,0.00,,,0.09,812.000000,,2013-05-06 16:02:00,
2013-05-06 11:23:00,68.0,39.0,-100.00,WNW,289,3.0,5.0,35,0.00,,,0.09,812.000000,,2013-05-06 16:23:00,
2013-05-06 11:33:00,68.0,39.0,-100.00,WNW,289,3.0,5.0,35,0.00,,,0.09,812.000000,,2013-05-06 16:33:00,
2013-05-06 11:42:00,68.0,39.0,-100.00,WNW,289,3.0,5.0,35,0.00,,,0.09,812.000000,,2013-05-06 16:42:00,
2013-05-06 11:52:00,68.0,39.0,-100.00,WNW,289,3.0,5.0,35,0.00,,,0.09,812.000000,,2013-05-06 16:52:00,
2013-05-06 13:22:00,71.0,40.0,-100.00,NW,307,4.0,8.0,32,-99.99,,,0.00,986.000000,,2013-05-06 18:22:00,
2013-05-06 13:32:00,71.0,40.0,-100.00,NW,307,4.0,8.0,32,-99.99,,,0.00,986.000000,,2013-05-06 18:32:00,
2013-05-06 13:43:00,71.0,40.0,-100.00,NW,307,4.0,8.0,32,-99.99,,,0.00,986.000000,,2013-05-06 18:43:00,
2013-05-06 13:52:00,71.0,40.0,-100.00,NW,307,4.0,8.0,32,-99.99,,,0.00,986.000000,,2013-05-06 18:52:00,
2013-05-06 14:01:00,71.0,40.0,-100.00,NW,307,4.0,8.0,32,-99.99,,,0.00,986.000000,,2013-05-06 19:01:00,
2013-05-06 14:02:00,73.0,39.0,-100.00,NNW,345,4.0,9.0,29,0.00,,,0.00,1109.000000,,2013-05-06 19:02:00,
2013-05-06 14:22:00,73.0,39.0,-100.00,NNW,345,4.0,9.0,29,0.00,,,0.00,1109.000000,,2013-05-06 19:22:00,
2013-05-06 14:32:00,73.0,39.0,-100.00,NNW,345,4.0,9.0,29,0.00,,,0.00,1109.000000,,2013-05-06 19:32:00,
2013-05-06 14:42:00,73.0,39.0,-100.00,NNW,345,4.0,9.0,29,0.00,,,0.00,1109.000000,,2013-05-06 19:42:00,
2013-05-06 14:52:00,73.0,39.0,-100.00,NNW,345,4.0,9.0,29,0.00,,,0.00,1109.000000,,2013-05-06 19:52:00,
2013-05-06 15:32:00,73.0,40.0,-100.00,NW,320,4.0,8.0,30,0.00,,,0.00,963.000000,,2013-05-06 20:32:00,
2013-05-06 15:42:00,73.0,40.0,-100.00,NW,320,4.0,8.0,30,0.00,,,0.00,963.000000,,2013-05-06 20:42:00,
2013-05-06 15:52:00,73.0,40.0,-100.00,NW,320,4.0,8.0,30,0.00,,,0.00,963.000000,,2013-05-06 20:52:00,
2013-05-06 16:01:00,73.0,40.0,-100.00,NW,320,4.0,8.0,30,0.00,,,0.00,963.000000,,2013-05-06 21:01:00,
2013-05-06 16:02:00,73.0,41.0,-100.00,North,352,4.0,8.0,31,0.00,,,-99.99,840.000000,,2013-05-06 21:02:00,
2013-05-06 16:22:00,73.0,41.0,-100.00,North,352,4.0,8.0,31,0.00,,,-99.99,840.000000,,2013-05-06 21:22:00,
2013-05-06 16:33:00,73.0,41.0,-100.00,North,352,4.0,8.0,31,0.00,,,-99.99,840.000000,,2013-05-06 21:33:00,
2013-05-06 16:43:00,73.0,41.0,-100.00,North,352,4.0,8.0,31,0.00,,,-99.99,840.000000,,2013-05-06 21:43:00,
2013-05-06 16:53:00,73.0,41.0,-100.00,North,352,4.0,8.0,31,0.00,,,-99.99,840.000000,,2013-05-06 21:53:00,
2013-05-06 17:02:00,73.0,40.0,-100.00,NE,43,1.0,9.0,30,0.00,,,0.00,685.000000,,2013-05-06 22:02:00,
2013-05-06 17:22:00,73.0,40.0,-100.00,NE,43,1.0,9.0,30,0.00,,,0.00,685.000000,,2013-05-06 22:22:00,
2013-05-06 17:33:00,73.0,40.0,-100.00,NE,43,1.0,9.0,30,0.00,,,0.00,685.000000,,2013-05-06 22:33:00,
2013-05-06 17:45:00,73.0,40.0,-100.00,NE,43,1.0,9.0,30,0.00,,,0.00,685.000000,,2013-05-06 22:45:00,
2013-05-06 17:52:00,73.0,40.0,-100.00,NE,43,1.0,9.0,30,0.00,,,0.00,685.000000,,2013-05-06 22:52:00,
2013-05-06 18:22:00,72.0,39.0,-100.00,West,268,3.0,5.0,30,0.00,,,0.00,492.000000,,2013-05-06 23:22:00,
2013-05-06 18:32:00,72.0,39.0,-100.00,West,268,3.0,5.0,30,0.00,,,0.00,492.000000,,2013-05-06 23:32:00,
2013-05-06 18:42:00,72.0,39.0,-100.00,West,268,3.0,5.0,30,0.00,,,0.00,492.000000,,2013-05-06 23:42:00,
2013-05-06 18:52:00,72.0,39.0,-100.00,West,268,3.0,5.0,30,0.00,,,0.00,492.000000,,2013-05-06 23:52:00,
2013-05-06 19:01:00,72.0,39.0,-100.00,West,268,3.0,5.0,30,0.00,,,0.00,492.000000,,2013-05-07 00:01:00,
2013-05-06 19:32:00,68.0,39.0,-100.00,North,1,3.0,6.0,35,0.00,,,0.00,288.000000,,2013-05-07 00:32:00,
2013-05-06 19:42:00,68.0,39.0,-100.00,North,1,3.0,6.0,35,0.00,,,0.00,288.000000,,2013-05-07 00:42:00,
2013-05-06 19:52:00,68.0,39.0,-100.00,North,1,3.0,6.0,35,0.00,,,0.00,288.000000,,2013-05-07 00:52:00,
2013-05-06 20:01:00,68.0,39.0,-100.00,North,1,3.0,6.0,35,0.00,,,0.00,288.000000,,2013-05-07 01:01:00,
2013-05-06 20:02:00,55.0,38.0,-100.00,North,359,2.0,6.0,53,0.00,,,0.00,74.000000,,2013-05-07 01:02:00,
2013-05-06 20:21:00,55.0,38.0,-100.00,North,359,2.0,6.0,53,0.00,,,0.00,74.000000,,2013-05-07 01:21:00,
2013-05-06 20:32:00,55.0,38.0,-100.00,North,359,2.0,6.0,53,0.00,,,0.00,74.000000,,2013-05-07 01:32:00,
2013-05-06 20:42:00,55.0,38.0,-100.00,North,359,2.0,6.0,53,0.00,,,0.00,74.000000,,2013-05-07 01:42:00,
2013-05-06 20:53:00,55.0,38.0,-100.00,North,359,2.0,6.0,53,0.00,,,0.00,74.000000,,2013-05-07 01:53:00,
2013-05-06 21:22:00,44.0,36.0,-100.00,ENE,76,0.0,7.0,72,0.00,,,0.00,4.000000,,2013-05-07 02:22:00,
2013-05-06 21:32:00,44.0,36.0,-100.00,ENE,76,0.0,7.0,72,0.00,,,0.00,4.000000,,2013-05-07 02:32:00,
2013-05-06 21:42:00,44.0,36.0,-100.00,ENE,76,0.0,7.0,72,0.00,,,0.00,4.000000,,2013-05-07 02:42:00,
2013-05-06 21:52:00,44.0,36.0,-100.00,ENE,76,0.0,7.0,72,0.00,,,0.00,4.000000,,2013-05-07 02:52:00,
2013-05-06 22:01:00,44.0,36.0,-100.00,ENE,76,0.0,7.0,72,0.00,,,0.00,4.000000,,2013-05-07 03:01:00,
2013-05-06 22:02:00,38.0,34.0,-100.00,North,10,0.0,2.0,86,0.00,,,0.00,0.000000,,2013-05-07 03:02:00,
2013-05-06 22:32:00,38.0,34.0,-100.00,North,10,0.0,2.0,86,0.00,,,0.00,0.000000,,2013-05-07 03:32:00,
2013-05-06 22:43:00,38.0,34.0,-100.00,North,10,0.0,2.0,86,0.00,,,0.00,0.000000,,2013-05-07 03:43:00,
2013-05-06 22:53:00,38.0,34.0,-100.00,North,10,0.0,2.0,86,0.00,,,0.00,0.000000,,2013-05-07 03:53:00,
2013-05-06 23:02:00,36.0,33.0,-100.00,NE,47,0.0,0.0,90,0.00,,,0.00,0.000000,,2013-05-07 04:02:00,
2013-05-06 23:23:00,36.0,33.0,-100.00,NE,47,0.0,0.0,90,0.00,,,0.00,0.000000,,2013-05-07 04:23:00,
2013-05-06 23:33:00,36.0,33.0,-100.00,NE,47,0.0,0.0,90,0.00,,,0.00,0.000000,,2013-05-07 04:33:00,
2013-05-06 23:42:00,36.0,33.0,-100.00,NE,47,0.0,0.0,90,0.00,,,0.00,0.000000,,2013-05-07 04:42:00,
2013-05-06 23:53:00,36.0,33.0,-100.00,NE,47,0.0,0.0,90,0.00,,,0.00,0.000000,,2013-05-07 04:53:00,